EFW79YW EGKK-LEIB

Flight info

Callsign EFW79YW
Flight time 2h 5m
Altitude 31000
Route SFD Y47 DRAKE L151 SITET UN859 SOPIL DCT BALAN DCT EVPOK DCT NARAK DCT GAI DCT LOMRA DCT ROCAN DCT PUMAL DCT XEPLA DCT BCN DCT CORDA
Aircraft A321/M-SDE3FGHIRWY/LB1

Departure

Time 2026-05-04 11:19
Airport London Gatwick Airport (EGKK)

Arrival

Time 2026-05-04 13:25
Airport Ibiza Airport (LEIB)
Time Latitude Longitude Altitude Speed Heading
2026-05-04 10:52 51.15524 -0.16656 214 ft 0 kts 348°
2026-05-04 11:05 51.15460 -0.16574 209 ft 2 kts 258°
2026-05-04 11:06 51.15461 -0.16572 209 ft 0 kts 258°
2026-05-04 11:10 51.15436 -0.16916 204 ft 14 kts 256°
2026-05-04 11:12 51.15274 -0.17635 203 ft 0 kts 257°
2026-05-04 11:12 51.15268 -0.17678 207 ft 10 kts 258°
2026-05-04 11:12 51.15246 -0.17848 204 ft 21 kts 258°
2026-05-04 11:12 51.15209 -0.18113 205 ft 28 kts 258°
2026-05-04 11:13 51.15175 -0.18406 209 ft 28 kts 257°
2026-05-04 11:13 51.15133 -0.18713 203 ft 23 kts 257°
2026-05-04 11:13 51.15095 -0.18985 205 ft 28 kts 258°
2026-05-04 11:13 51.15059 -0.19230 204 ft 16 kts 244°
2026-05-04 11:14 51.14965 -0.19296 209 ft 18 kts 227°
2026-05-04 11:14 51.14924 -0.19529 208 ft 26 kts 259°
2026-05-04 11:14 51.14884 -0.19844 211 ft 32 kts 257°
2026-05-04 11:16 51.14673 -0.21331 206 ft 2 kts 214°
2026-05-04 11:16 51.14655 -0.21334 212 ft 3 kts 182°
2026-05-04 11:16 51.14648 -0.21334 207 ft 0 kts 180°
2026-05-04 11:17 51.14639 -0.21333 208 ft 2 kts 175°
2026-05-04 11:19 51.14597 -0.20615 216 ft 52 kts 77°
2026-05-04 11:19 51.14726 -0.19686 208 ft 118 kts 77°
2026-05-04 11:19 51.14942 -0.18126 251 ft 165 kts 77°
2026-05-04 11:19 51.15176 -0.16375 913 ft 164 kts 77°
2026-05-04 11:20 51.15424 -0.14575 1571 ft 169 kts 78°
2026-05-04 11:20 51.15693 -0.12645 1847 ft 189 kts 78°
2026-05-04 11:20 51.15993 -0.10479 2049 ft 211 kts 78°
2026-05-04 11:20 51.16111 -0.08074 2348 ft 225 kts 103°
2026-05-04 11:22 51.04836 -0.01419 6688 ft 270 kts 164°
2026-05-04 11:22 51.03022 -0.00554 7375 ft 274 kts 164°
2026-05-04 11:23 51.01190 0.00331 8017 ft 277 kts 164°
2026-05-04 11:23 50.99340 0.01223 8694 ft 279 kts 164°
2026-05-04 11:24 50.87900 0.06636 12430 ft 294 kts 165°
2026-05-04 11:25 50.85931 0.07559 13037 ft 296 kts 164°
2026-05-04 11:25 50.83949 0.08490 13640 ft 299 kts 164°
2026-05-04 11:25 50.81949 0.09427 14185 ft 301 kts 164°
2026-05-04 11:26 50.77929 0.11299 15274 ft 305 kts 167°
2026-05-04 11:27 50.61610 0.06956 17157 ft 377 kts 192°
2026-05-04 11:28 50.59038 0.06030 17632 ft 379 kts 192°
2026-05-04 11:28 50.56460 0.05101 18086 ft 382 kts 192°
2026-05-04 11:28 50.53867 0.04167 18504 ft 384 kts 192°
2026-05-04 11:28 50.51256 0.03228 18891 ft 385 kts 192°
2026-05-04 11:29 50.48637 0.02287 19313 ft 387 kts 193°
2026-05-04 11:29 50.46011 0.01342 19725 ft 388 kts 193°
2026-05-04 11:29 50.43374 0.00392 20145 ft 389 kts 193°
2026-05-04 11:29 50.40731 -0.00558 20556 ft 391 kts 193°
2026-05-04 11:31 50.21989 -0.06456 23496 ft 401 kts 180°
2026-05-04 11:33 50.03028 0.02758 25668 ft 415 kts 168°
2026-05-04 11:33 50.00224 0.03855 25974 ft 416 kts 168°
2026-05-04 11:33 49.97412 0.04959 26277 ft 418 kts 168°
2026-05-04 11:34 49.94588 0.06068 26593 ft 419 kts 167°
2026-05-04 11:34 49.91762 0.07178 26901 ft 420 kts 167°
2026-05-04 11:34 49.88921 0.08292 27197 ft 422 kts 167°
2026-05-04 11:34 49.86073 0.09408 27484 ft 423 kts 168°
2026-05-04 11:35 49.83217 0.10524 27763 ft 424 kts 168°
2026-05-04 11:35 49.80347 0.11650 28032 ft 426 kts 167°
2026-05-04 11:35 49.77508 0.12762 28287 ft 427 kts 168°
2026-05-04 11:35 49.74625 0.13889 28565 ft 429 kts 168°
2026-05-04 11:36 49.71731 0.15017 28854 ft 429 kts 168°
2026-05-04 11:36 49.68828 0.16139 29084 ft 430 kts 168°
2026-05-04 11:36 49.65925 0.17271 29336 ft 431 kts 167°
2026-05-04 11:36 49.63027 0.18431 29683 ft 430 kts 167°
2026-05-04 11:37 49.60142 0.19604 30083 ft 428 kts 167°
2026-05-04 11:37 49.57263 0.20782 30401 ft 427 kts 167°
2026-05-04 11:37 49.54397 0.21954 30648 ft 427 kts 167°
2026-05-04 11:37 49.51524 0.23117 30881 ft 426 kts 167°
2026-05-04 11:38 49.48656 0.24267 31005 ft 424 kts 167°
2026-05-04 11:38 49.45825 0.25397 31000 ft 417 kts 167°
2026-05-04 11:38 49.40233 0.27618 31002 ft 414 kts 167°
2026-05-04 11:39 49.34662 0.29844 31001 ft 414 kts 167°
2026-05-04 11:41 49.15252 0.37938 30991 ft 414 kts 166°
2026-05-04 11:41 49.09693 0.40278 30994 ft 414 kts 167°
2026-05-04 11:42 49.04133 0.42605 30991 ft 414 kts 167°
2026-05-04 11:42 48.98572 0.44928 30972 ft 414 kts 166°
2026-05-04 11:43 48.93011 0.47244 30967 ft 415 kts 166°
2026-05-04 11:43 48.87446 0.49546 30970 ft 415 kts 166°
2026-05-04 11:44 48.81876 0.51860 30983 ft 415 kts 166°
2026-05-04 11:44 48.76308 0.54155 30987 ft 415 kts 167°
2026-05-04 11:45 48.70721 0.56340 30984 ft 415 kts 167°
2026-05-04 11:45 48.65130 0.58496 30983 ft 415 kts 167°
2026-05-04 11:46 48.59542 0.60670 30982 ft 414 kts 167°
2026-05-04 11:46 48.53956 0.62849 30969 ft 414 kts 167°
2026-05-04 11:47 48.48380 0.65043 30977 ft 414 kts 167°
2026-05-04 11:47 48.42851 0.67302 30970 ft 415 kts 166°
2026-05-04 11:48 48.37283 0.69594 30970 ft 415 kts 167°
2026-05-04 11:48 48.31709 0.71865 30969 ft 415 kts 167°
2026-05-04 11:49 48.26127 0.74109 30982 ft 415 kts 167°
2026-05-04 11:49 48.20545 0.76339 30973 ft 415 kts 167°
2026-05-04 11:50 48.14950 0.78530 30966 ft 416 kts 167°
2026-05-04 11:50 48.09351 0.80718 30968 ft 416 kts 167°
2026-05-04 11:51 48.03745 0.82911 30966 ft 416 kts 167°
2026-05-04 11:51 47.98140 0.85106 30946 ft 417 kts 167°
2026-05-04 11:52 47.92568 0.87280 30952 ft 417 kts 167°
2026-05-04 11:52 47.86957 0.89459 30959 ft 417 kts 167°
2026-05-04 11:53 47.81338 0.91636 30966 ft 417 kts 167°
2026-05-04 11:53 47.75724 0.93820 30967 ft 417 kts 167°
2026-05-04 11:55 47.53274 1.02468 30975 ft 417 kts 168°
2026-05-04 11:56 47.47654 1.04617 30974 ft 417 kts 168°
2026-05-04 11:56 47.42024 1.06333 30980 ft 415 kts 178°
2026-05-04 11:57 47.36273 1.06297 30972 ft 412 kts 182°
2026-05-04 11:57 47.30532 1.06148 30970 ft 412 kts 182°
2026-05-04 11:58 47.24794 1.06012 30971 ft 412 kts 182°
2026-05-04 11:58 47.19052 1.05880 30971 ft 412 kts 182°
2026-05-04 11:59 47.13348 1.05746 30967 ft 412 kts 182°
2026-05-04 11:59 47.07613 1.05607 30970 ft 412 kts 182°
2026-05-04 12:00 47.01879 1.05472 30971 ft 411 kts 182°
2026-05-04 12:00 46.96187 1.05270 30968 ft 411 kts 183°
2026-05-04 12:01 46.90471 1.04995 30970 ft 411 kts 183°
2026-05-04 12:02 46.71439 1.04168 30961 ft 410 kts 183°
2026-05-04 12:03 46.65735 1.03927 30962 ft 410 kts 183°
2026-05-04 12:03 46.60024 1.03683 30972 ft 411 kts 183°
2026-05-04 12:04 46.54318 1.03446 30953 ft 409 kts 183°
2026-05-04 12:04 46.48653 1.04312 30952 ft 412 kts 169°
2026-05-04 12:05 46.43064 1.06199 30949 ft 412 kts 169°
2026-05-04 12:05 46.37502 1.08064 30952 ft 412 kts 169°
2026-05-04 12:06 46.31910 1.09924 30955 ft 413 kts 169°
2026-05-04 12:06 46.26309 1.11776 30955 ft 412 kts 169°
2026-05-04 12:07 46.20719 1.13632 30962 ft 412 kts 169°
2026-05-04 12:07 46.15127 1.15486 30951 ft 412 kts 169°
2026-05-04 12:08 46.09569 1.17321 30951 ft 412 kts 169°
2026-05-04 12:08 46.03985 1.19167 30930 ft 412 kts 170°
2026-05-04 12:09 45.98396 1.21015 30944 ft 411 kts 170°
2026-05-04 12:09 45.92823 1.22848 30937 ft 411 kts 170°
2026-05-04 12:10 45.87250 1.24673 30942 ft 411 kts 170°
2026-05-04 12:10 45.81679 1.26495 30945 ft 411 kts 170°
2026-05-04 12:11 45.76107 1.28312 30941 ft 411 kts 170°
2026-05-04 12:11 45.70529 1.30123 30944 ft 411 kts 170°
2026-05-04 12:12 45.64983 1.31917 30951 ft 411 kts 170°
2026-05-04 12:12 45.59399 1.33733 30951 ft 411 kts 170°
2026-05-04 12:14 45.37068 1.40963 30943 ft 412 kts 170°
2026-05-04 12:15 45.31471 1.42757 30943 ft 412 kts 170°
2026-05-04 12:15 45.25869 1.44555 30946 ft 412 kts 170°
2026-05-04 12:16 45.20271 1.46339 30948 ft 412 kts 170°
2026-05-04 12:16 45.14665 1.48125 30943 ft 413 kts 170°
2026-05-04 12:17 45.09087 1.49909 30942 ft 413 kts 171°
2026-05-04 12:17 45.03469 1.51691 30944 ft 414 kts 171°
2026-05-04 12:18 44.97842 1.53477 30913 ft 414 kts 171°
2026-05-04 12:18 44.92210 1.55261 30940 ft 414 kts 171°
2026-05-04 12:19 44.86628 1.57034 30953 ft 413 kts 171°
2026-05-04 12:19 44.81017 1.58810 30956 ft 413 kts 171°
2026-05-04 12:20 44.75412 1.60575 30957 ft 412 kts 171°
2026-05-04 12:20 44.69803 1.62341 30955 ft 412 kts 171°
2026-05-04 12:21 44.64200 1.64098 30954 ft 413 kts 171°
2026-05-04 12:21 44.58598 1.65843 30946 ft 412 kts 171°
2026-05-04 12:22 44.52994 1.67590 30944 ft 412 kts 171°
2026-05-04 12:22 44.47422 1.69325 30951 ft 413 kts 171°
2026-05-04 12:23 44.41816 1.71069 30954 ft 413 kts 171°
2026-05-04 12:23 44.36212 1.72814 30943 ft 413 kts 171°
2026-05-04 12:24 44.30602 1.74556 30939 ft 413 kts 171°
2026-05-04 12:24 44.24974 1.76072 30940 ft 411 kts 174°
2026-05-04 12:25 44.19316 1.77242 30940 ft 411 kts 176°
2026-05-04 12:25 44.13693 1.78380 30947 ft 411 kts 175°
2026-05-04 12:26 44.08030 1.79608 30950 ft 412 kts 175°
2026-05-04 12:26 44.02369 1.80869 30956 ft 412 kts 175°
2026-05-04 12:27 43.96711 1.82118 30955 ft 411 kts 176°
2026-05-04 12:27 43.91052 1.83049 30961 ft 408 kts 180°
2026-05-04 12:28 43.85429 1.83513 30965 ft 406 kts 181°
2026-05-04 12:28 43.79783 1.83941 30950 ft 406 kts 181°
2026-05-04 12:29 43.74144 1.84453 30951 ft 406 kts 181°
2026-05-04 12:29 43.68501 1.85013 30946 ft 406 kts 181°
2026-05-04 12:30 43.62903 1.85569 30958 ft 406 kts 181°
2026-05-04 12:30 43.57267 1.86122 30940 ft 405 kts 181°
2026-05-04 12:31 43.51640 1.86662 30942 ft 405 kts 181°
2026-05-04 12:31 43.46013 1.87198 30939 ft 405 kts 181°
2026-05-04 12:32 43.37612 1.87997 30935 ft 405 kts 181°
2026-05-04 12:33 43.31994 1.88533 30938 ft 405 kts 181°
2026-05-04 12:33 43.26367 1.89073 30946 ft 405 kts 181°
2026-05-04 12:34 43.20739 1.89603 30938 ft 405 kts 181°
2026-05-04 12:34 43.15115 1.90137 30941 ft 405 kts 181°
2026-05-04 12:35 43.09485 1.90675 30942 ft 405 kts 181°
2026-05-04 12:35 43.03855 1.91215 30912 ft 405 kts 182°
2026-05-04 12:36 42.98228 1.91753 30892 ft 406 kts 182°
2026-05-04 12:36 42.92628 1.92277 30910 ft 406 kts 182°
2026-05-04 12:37 42.86998 1.92815 30923 ft 406 kts 182°
2026-05-04 12:37 42.81358 1.93350 30935 ft 406 kts 182°
2026-05-04 12:38 42.75725 1.93875 30939 ft 405 kts 182°
2026-05-04 12:38 42.70098 1.94398 30937 ft 405 kts 182°
2026-05-04 12:39 42.64480 1.95060 30945 ft 406 kts 179°
2026-05-04 12:39 42.58908 1.96202 30932 ft 409 kts 176°
2026-05-04 12:40 42.53282 1.97482 30935 ft 409 kts 177°
2026-05-04 12:40 42.47658 1.98664 30942 ft 409 kts 178°
2026-05-04 12:41 42.42029 1.99786 30939 ft 409 kts 178°
2026-05-04 12:41 42.36400 2.00887 30930 ft 408 kts 179°
2026-05-04 12:42 42.30776 2.01597 30942 ft 404 kts 182°
2026-05-04 12:42 42.25195 2.02016 30941 ft 404 kts 182°
2026-05-04 12:43 42.19583 2.02457 30936 ft 404 kts 183°
2026-05-04 12:43 42.13958 2.02977 30934 ft 404 kts 182°
2026-05-04 12:44 42.08345 2.03525 30937 ft 404 kts 182°
2026-05-04 12:44 42.02729 2.04057 30937 ft 404 kts 182°
2026-05-04 12:45 41.97148 2.04586 30938 ft 404 kts 182°
2026-05-04 12:45 41.91542 2.05120 30945 ft 403 kts 182°
2026-05-04 12:46 41.85941 2.05646 30948 ft 403 kts 182°
2026-05-04 12:46 41.80354 2.06162 30950 ft 402 kts 182°
2026-05-04 12:47 41.74761 2.06678 30932 ft 402 kts 182°
2026-05-04 12:47 41.69185 2.07197 30957 ft 401 kts 182°
2026-05-04 12:48 41.63656 2.07720 30958 ft 399 kts 182°
2026-05-04 12:48 41.58118 2.08243 30955 ft 399 kts 183°
2026-05-04 12:49 41.52587 2.08752 30958 ft 398 kts 183°
2026-05-04 12:49 41.47062 2.09262 30986 ft 397 kts 183°
2026-05-04 12:50 41.41548 2.09778 30990 ft 396 kts 183°
2026-05-04 12:50 41.36058 2.10284 30983 ft 394 kts 183°
2026-05-04 12:51 41.30632 2.10783 30944 ft 394 kts 182°
2026-05-04 12:51 41.25152 2.11562 30947 ft 398 kts 179°
2026-05-04 12:52 41.19660 2.12566 30950 ft 399 kts 179°
2026-05-04 12:52 41.14149 2.13559 30955 ft 399 kts 179°
2026-05-04 12:53 41.08639 2.14499 30937 ft 400 kts 179°
2026-05-04 12:53 41.03101 2.15419 30937 ft 401 kts 179°
2026-05-04 12:54 40.97551 2.16328 30940 ft 402 kts 179°
2026-05-04 12:54 40.92030 2.17242 30946 ft 402 kts 179°
2026-05-04 12:55 40.86469 2.18170 30923 ft 403 kts 179°
2026-05-04 12:55 40.80897 2.19099 30931 ft 404 kts 179°
2026-05-04 12:56 40.75331 2.20019 30935 ft 405 kts 179°
2026-05-04 12:56 40.69737 2.20942 30941 ft 405 kts 179°
2026-05-04 12:57 40.64136 2.21866 30945 ft 405 kts 179°
2026-05-04 12:57 40.62272 2.22171 30816 ft 406 kts 179°
2026-05-04 12:57 40.59458 2.22632 30573 ft 407 kts 179°
2026-05-04 12:57 40.56650 2.23092 30328 ft 408 kts 178°
2026-05-04 12:58 40.53829 2.23556 30085 ft 408 kts 178°
2026-05-04 12:58 40.51009 2.24020 29814 ft 408 kts 178°
2026-05-04 12:58 40.48196 2.24485 29526 ft 407 kts 178°
2026-05-04 12:58 40.45392 2.24929 29253 ft 404 kts 181°
2026-05-04 12:59 40.42602 2.24991 28952 ft 399 kts 188°
2026-05-04 12:59 40.39904 2.24543 28687 ft 393 kts 196°
2026-05-04 12:59 40.37284 2.23606 28412 ft 388 kts 203°
2026-05-04 12:59 40.34747 2.22412 28147 ft 387 kts 203°
2026-05-04 13:00 40.32210 2.21227 27882 ft 386 kts 203°
2026-05-04 13:00 40.29687 2.20059 27613 ft 384 kts 203°
2026-05-04 13:00 40.27173 2.18899 27354 ft 383 kts 203°
2026-05-04 13:00 40.24664 2.17741 27108 ft 381 kts 203°
2026-05-04 13:01 40.22165 2.16585 26840 ft 380 kts 203°
2026-05-04 13:01 40.19678 2.15436 26582 ft 378 kts 204°
2026-05-04 13:01 40.17204 2.14290 26336 ft 376 kts 204°
2026-05-04 13:01 40.14745 2.13149 26087 ft 375 kts 204°
2026-05-04 13:02 40.12288 2.12012 25836 ft 374 kts 204°
2026-05-04 13:02 40.09843 2.10882 25538 ft 370 kts 204°
2026-05-04 13:02 40.07431 2.09775 25077 ft 365 kts 204°
2026-05-04 13:02 40.05082 2.08696 24608 ft 360 kts 204°
2026-05-04 13:03 40.02736 2.07617 24153 ft 356 kts 204°
2026-05-04 13:03 40.00410 2.06550 23694 ft 352 kts 204°
2026-05-04 13:03 39.98113 2.05498 23215 ft 347 kts 204°
2026-05-04 13:03 39.95851 2.04460 22790 ft 341 kts 204°
2026-05-04 13:04 39.93628 2.03439 22372 ft 336 kts 204°
2026-05-04 13:04 39.91442 2.02434 21979 ft 332 kts 204°
2026-05-04 13:04 39.89263 2.01433 21574 ft 332 kts 204°
2026-05-04 13:04 39.87088 2.00439 21176 ft 331 kts 204°
2026-05-04 13:05 39.84917 1.99448 20768 ft 330 kts 204°
2026-05-04 13:05 39.82756 1.98461 20368 ft 328 kts 204°
2026-05-04 13:05 39.80600 1.97476 19951 ft 327 kts 204°
2026-05-04 13:05 39.78455 1.96493 19527 ft 326 kts 204°
2026-05-04 13:06 39.76351 1.95530 19116 ft 324 kts 204°
2026-05-04 13:06 39.74223 1.94558 18702 ft 322 kts 204°
2026-05-04 13:06 39.72109 1.93595 18268 ft 322 kts 204°
2026-05-04 13:06 39.69999 1.92638 17791 ft 320 kts 204°
2026-05-04 13:07 39.67894 1.91679 17353 ft 319 kts 204°
2026-05-04 13:07 39.65807 1.90728 16934 ft 317 kts 204°
2026-05-04 13:07 39.63736 1.89790 16488 ft 314 kts 203°
2026-05-04 13:07 39.61700 1.88867 16057 ft 312 kts 203°
2026-05-04 13:08 39.59656 1.87935 15628 ft 311 kts 203°
2026-05-04 13:08 39.57619 1.87006 15197 ft 309 kts 203°
2026-05-04 13:08 39.55590 1.86085 14759 ft 307 kts 203°
2026-05-04 13:08 39.53568 1.85172 14338 ft 306 kts 202°
2026-05-04 13:09 39.51586 1.84277 13922 ft 304 kts 202°
2026-05-04 13:09 39.49591 1.83374 13474 ft 302 kts 202°
2026-05-04 13:09 39.47607 1.82476 13038 ft 301 kts 202°
2026-05-04 13:09 39.45635 1.81584 12622 ft 299 kts 202°
2026-05-04 13:10 39.43678 1.80700 12201 ft 297 kts 202°
2026-05-04 13:10 39.41731 1.79817 11787 ft 296 kts 202°
2026-05-04 13:10 39.39796 1.78939 11376 ft 294 kts 202°
2026-05-04 13:10 39.37873 1.78067 10970 ft 292 kts 202°
2026-05-04 13:11 39.35980 1.77213 10570 ft 291 kts 202°
2026-05-04 13:11 39.34096 1.76368 10369 ft 280 kts 201°
2026-05-04 13:11 39.32273 1.75554 10089 ft 274 kts 202°
2026-05-04 13:11 39.30490 1.74755 9875 ft 269 kts 202°
2026-05-04 13:12 39.28720 1.73958 9758 ft 269 kts 202°
2026-05-04 13:12 39.26947 1.73160 9626 ft 269 kts 202°
2026-05-04 13:12 39.25181 1.72365 9467 ft 269 kts 202°
2026-05-04 13:12 39.23408 1.71567 9038 ft 269 kts 202°
2026-05-04 13:13 39.21640 1.70775 8582 ft 269 kts 201°
2026-05-04 13:13 39.19894 1.69991 8151 ft 268 kts 201°
2026-05-04 13:13 39.18133 1.69200 7725 ft 268 kts 201°
2026-05-04 13:13 39.16374 1.68410 7301 ft 267 kts 201°
2026-05-04 13:14 39.14629 1.67630 6968 ft 263 kts 201°
2026-05-04 13:14 39.12900 1.66858 6569 ft 263 kts 201°
2026-05-04 13:14 39.11174 1.66086 6164 ft 262 kts 201°
2026-05-04 13:14 39.09463 1.65317 5811 ft 258 kts 201°
2026-05-04 13:15 39.08495 1.64883 5604 ft 257 kts 201°
2026-05-04 13:18 39.07693 1.64523 5381 ft 256 kts 201°
2026-05-04 13:18 39.06039 1.63783 4790 ft 254 kts 202°
2026-05-04 13:18 39.04375 1.63040 4239 ft 250 kts 201°
2026-05-04 13:18 39.02789 1.62338 4100 ft 231 kts 201°
2026-05-04 13:19 39.01321 1.61690 4000 ft 218 kts 201°
2026-05-04 13:19 38.99891 1.61053 3906 ft 217 kts 202°
2026-05-04 13:19 38.98470 1.60418 3814 ft 216 kts 202°
2026-05-04 13:19 38.97092 1.59669 3612 ft 213 kts 214°
2026-05-04 13:20 38.96032 1.58414 3384 ft 204 kts 233°
2026-05-04 13:20 38.95338 1.56849 3130 ft 199 kts 240°
2026-05-04 13:20 38.94702 1.55297 2871 ft 194 kts 240°
2026-05-04 13:20 38.94070 1.53760 2617 ft 194 kts 241°
2026-05-04 13:21 38.93458 1.52270 2374 ft 181 kts 240°
2026-05-04 13:21 38.92899 1.50911 2134 ft 164 kts 239°
2026-05-04 13:21 38.92388 1.49671 1926 ft 150 kts 239°
2026-05-04 13:21 38.91916 1.48526 1735 ft 142 kts 240°
2026-05-04 13:22 38.91456 1.47412 1555 ft 141 kts 240°
2026-05-04 13:22 38.91001 1.46311 1362 ft 139 kts 238°
2026-05-04 13:22 38.90548 1.45213 1171 ft 139 kts 239°
2026-05-04 13:22 38.90103 1.44135 986 ft 141 kts 240°
2026-05-04 13:23 38.89647 1.43032 800 ft 138 kts 239°
2026-05-04 13:23 38.89200 1.41939 617 ft 139 kts 239°
2026-05-04 13:23 38.88750 1.40850 447 ft 138 kts 239°
2026-05-04 13:23 38.88299 1.39769 254 ft 136 kts 238°
2026-05-04 13:24 38.87856 1.38693 54 ft 138 kts 240°
2026-05-04 13:24 38.87437 1.37686 9 ft 105 kts 242°
2026-05-04 13:24 38.87184 1.37072 11 ft 56 kts 243°
2026-05-04 13:25 38.87105 1.36606 8 ft 13 kts 275°
2026-05-04 13:25 38.87163 1.36567 10 ft 12 kts 44°
2026-05-04 13:25 38.87207 1.36664 9 ft 13 kts 63°
2026-05-04 13:25 38.87250 1.36772 9 ft 14 kts 64°
2026-05-04 13:26 38.87298 1.36860 9 ft 7 kts 13°
2026-05-04 13:26 38.87347 1.36835 9 ft 8 kts 333°
2026-05-04 13:26 38.87403 1.36799 8 ft 9 kts 338°
2026-05-04 13:26 38.87453 1.36838 8 ft 8 kts 59°
2026-05-04 13:27 38.87467 1.36872 8 ft 1 kts 61°
2026-05-04 13:27 38.87475 1.36885 8 ft 3 kts 47°
2026-05-04 13:27 38.87508 1.36882 8 ft 6 kts 337°
2026-05-04 13:27 38.87528 1.36868 8 ft 3 kts 332°
2026-05-04 13:28 38.87533 1.36865 10 ft 0 kts 332°